Flag for Croatia Weather past 2 weeks in Dubrovnik, Croatia

Now
77 °F

Passing clouds.


Feels Like: 79 °F
Forecast: 66 / 76 °F
Wind: 6 mph from Northwest

Location: Dubrovnik / Cilipi

Current Time: Aug 1, 2014 at 6:49:20 PM

Latest Report: Aug 1, 2014 at 6:00 PM


Visibility: N/A

Pressure: 29.77 "Hg

Humidity: 69%

Dew point: 66 °F

Location of DubrovnikLocation

Historic Weather in Dubrovnik — Graph

°F

Dubrovnik temperature yesterday

Maximum temperature yesterday: 77 °F (at 3:00 PM)
Minimum temperature yesterday: 63 °F (at 12:30 AM)
Average temperature yesterday: 70 °F

Past Weeks' High & Low Weather Summary

 TemperatureHumidityPressure
High86 °F (Jul 17, 5:00 PM)100% (Jul 27, 2:00 PM)30.01 "Hg (Jul 27, 2:00 PM)
Low63 °F (Jul 27, 2:00 PM)34% (Jul 19, 3:30 AM)29.71 "Hg (Jul 22, 5:30 PM)
Average75 °F68%29.87 "Hg
* Reported Jul 17 5:00 PM — Aug 1 5:30 PM, Dubrovnik, Weather by CustomWeather, © 2014

Note: Actual official high and low records may vary slightly from our data, if they occured in-between our weather recording intervals... More about our weather records

Advertising

Dubrovnik weather history for previous 24 hours

 ConditionsComfort  
Time TempWeatherWind HumidityBarometerVisibility
5:30 PM
Aug 1
75 °FPassing clouds.9 mph69%29.80 "HgN/A
5:00 PM77 °FPassing clouds.8 mph69%29.80 "HgN/A
4:30 PM77 °FPassing clouds.9 mph74%29.80 "HgN/A
4:00 PM77 °FPassing clouds.8 mph69%29.80 "HgN/A
3:30 PM75 °FScattered clouds.7 mph74%29.80 "HgN/A
3:00 PM77 °FScattered clouds.7 mph74%29.80 "HgN/A
2:30 PM75 °FPassing clouds.5 mph78%29.80 "HgN/A
2:00 PM75 °FScattered showers. Passing clouds.9 mph74%29.80 "HgN/A
1:30 PM75 °FPassing clouds.9 mph78%29.80 "HgN/A
1:00 PM77 °FPassing clouds.8 mph69%29.80 "HgN/A
12:30 PM75 °FPassing clouds.8 mph78%29.80 "HgN/A
12:00 PM75 °FPassing clouds.8 mph69%29.80 "HgN/A
11:30 AM73 °FPassing clouds.6 mph74%29.80 "HgN/A
11:00 AM75 °FPassing clouds.7 mph74%29.80 "HgN/A
10:30 AM73 °FPassing clouds.8 mph74%29.80 "HgN/A
10:00 AM75 °FPassing clouds.8 mph65%29.77 "HgN/A
9:30 AM75 °FPassing clouds.7 mph61%29.77 "HgN/A
9:00 AM75 °FPassing clouds.5 mph61%29.77 "HgN/A
8:30 AM73 °FPassing clouds.6 mph65%29.77 "HgN/A
8:00 AM73 °FPassing clouds.7 mph65%29.77 "HgN/A
7:30 AM72 °FPassing clouds.9 mph65%29.77 "HgN/A
7:00 AM70 °FPassing clouds.8 mph69%29.77 "HgN/A
6:30 AM70 °FPassing clouds.12 mph69%29.77 "HgN/A
6:00 AM70 °FClear.16 mph69%29.74 "Hg10 mi
5:30 AM70 °FPassing clouds.14 mph69%29.77 "HgN/A
5:00 AM70 °FPassing clouds.12 mph69%29.77 "HgN/A
4:30 AM70 °FLight rain. Clear.9 mph69%29.77 "HgN/A
4:00 AM70 °FClear.7 mph69%29.77 "Hg10 mi
3:30 AM70 °FPassing clouds.6 mph69%29.77 "HgN/A
3:00 AM72 °FClear.3 mph65%29.77 "Hg10 mi
2:30 AM70 °FClear.1 mph69%29.77 "Hg10 mi
2:00 AM70 °FClear.5 mph69%29.77 "Hg10 mi
1:30 AM70 °FPassing clouds.5 mph73%29.77 "HgN/A
1:00 AM70 °FClear.3 mph73%29.80 "Hg10 mi
12:30 AM70 °FClear.2 mph73%29.80 "Hg10 mi
12:00 AM70 °FClear.5 mph73%29.80 "Hg10 mi
11:30 PM
Jul 31
70 °FPassing clouds.6 mph73%29.80 "HgN/A
11:00 PM68 °FClear.6 mph78%29.77 "Hg10 mi
10:30 PM70 °FPassing clouds.5 mph73%29.80 "HgN/A
10:00 PM70 °FClear.7 mph78%29.80 "Hg10 mi
9:30 PM70 °FClear.6 mph83%29.80 "Hg10 mi
9:00 PM70 °FSunny.5 mph78%29.80 "Hg10 mi
8:30 PM70 °FPassing clouds.5 mph78%29.77 "HgN/A
8:00 PM70 °FPassing clouds.7 mph83%29.77 "HgN/A
7:30 PM73 °FPassing clouds.5 mph69%29.77 "HgN/A
7:00 PM72 °FPassing clouds.8 mph73%29.77 "HgN/A
6:30 PM73 °FPassing clouds.10 mph74%29.77 "HgN/A
6:00 PM75 °FPassing clouds.8 mph61%29.77 "HgN/A
Weather by CustomWeather, © 2014

See weather overviewHow to use our weather pages